Weather Roundup
Issued by NWS

Home | Current Version | Previous Version | Text Only | Print | Product List | Glossary On
Versions: 1 2 3 4 5 6 7 8 9 10 11 12 13 14 15 16 17 18 19 20 21 22 23 24 25 26 27 28 29 30 31 32 33 34 35 36 37 38 39 40 41 42 43 44 45 46 47 48 49 50
486
NZUS93 KARX 081510
HRRWXR

CURRENT HOURLY OBSERVATIONS ACROSS
MUCH OF THE UPPER MISSISSIPPI VALLEY
NATIONAL WEATHER SERVICE LA CROSSE WI
900 AM CST MON FEB 08 2016


...SOUTHEAST MINNESOTA...


CITY           SKY/WX    TMP DP  RH WIND       PRES   REMARKS
ROCHESTER      LGT SNOW  12   6  77 NW22      29.81R WCI  -7
ROCHESTER/MAYO CLOUDY    12   7  79 NW15G29   29.82R WCI  -4
WINONA         CLOUDY    18  10  73 NW18      29.83R WCI   2
AUSTIN         CLOUDY    10   7  85 NW18G26   29.84R FOG     WCI  -8
ALBERT LEA     CLOUDY    10   7  85 NW20      29.87R FOG     WCI  -8
DODGE CENTER   CLOUDY    10   5  79 NW21G29   29.83R HAZE    WCI  -9
PRESTON        CLOUDY    13   7  77 N16       29.79R WCI  -4
OWATONNA       LGT SNOW  10   5  79 NW22G29   29.88R WCI  -9
FARIBAULT      CLOUDY    10   3  72 NW18G28   29.90R WCI  -8
$$

...ELSEWHERE IN MINNESOTA...


CITY           SKY/WX    TMP DP  RH WIND       PRES   REMARKS
MINNEAPOLIS    CLOUDY    11   3  70 NW22G28   29.92R WCI  -8
INTNL FALLS    LGT SNOW   3  -2  79 NW16      29.95R VSB 3/4 WCI -16
DULUTH         LGT SNOW   8   2  76 N15G28    29.81R VSB 3/4 WCI  -9
RED WING       CLOUDY    14   3  62 NW12G24   29.87R WCI   0
REDWOOD FALLS  LGT SNOW  12   7  80 NW16G31   30.02R WCI  -5
MANKATO        CLOUDY   N/A N/A N/A NW28      29.92R
WORTHINGTON    CLOUDY   N/A N/A N/A NW35      30.00R VSB 1/2
FAIRMONT       CLOUDY   N/A N/A N/A NW32      29.91R
$$

...SOUTHWEST WISCONSIN...


CITY           SKY/WX    TMP DP  RH WIND       PRES   REMARKS
LA CROSSE      LGT SNOW  17  10  74 NW17      29.79R WCI   1
PRAIRIE DU CHI FLURRIES  19  11  69 NW13      29.78R WCI   6
BOSCOBEL       LGT SNOW  20  14  77 VRB7      29.76R WCI  11
LONE ROCK      FLURRIES  20  12  71 NW9       29.73R WCI   9
PLATTEVILLE    CLOUDY    17  13  84 NW13      29.71S WCI   4
FORT MC COY    FLURRIES  18  13  80 NW10G17   29.77R WCI   6
CAMP DOUGLAS   CLOUDY    19  18  93 NW14      29.71R WCI   6
VIROQUA        CLOUDY    16  12  83 NW17      29.71R WCI   0
WIS DELLS      CLOUDY    19  13  76 NW10G18   29.69R WCI   8
$$

...ELSEWHERE IN WISCONSIN...


CITY           SKY/WX    TMP DP  RH WIND       PRES   REMARKS
MILWAUKEE      SNOW      29  26  89 W7        29.62R VSB 1/4 WCI  22
MADISON        FLURRIES  21  15  78 NW14      29.67R WCI   8
GREEN BAY      CLOUDY    31  25  78 W8        29.60R WCI  23
EAU CLAIRE     CLOUDY    14   5  67 NW9G20    29.80R WCI   2
BLACK RVR FLS  LGT SNOW  18  11  74 NW9       29.76R WCI   6
MEDFORD        CLOUDY    19  15  88 NW13      29.67R WCI   5
WAUSAU         CLOUDY    27  19  72 NW12      29.62R WCI  17
WIS RAPIDS     CLOUDY    20  13  74 NW15G21   29.69R WCI   6
MARSHFIELD     CLOUDY    19  12  74 NW21      29.66R WCI   3
RICE LAKE      FLURRIES  13   6  76 NW9G18    29.83R WCI   0
$$

...NORTHEAST IOWA...


CITY           SKY/WX    TMP DP  RH WIND       PRES   REMARKS
WATERLOO       LGT SNOW  13   8  81 NW24G36   29.84R WCI  -7
DUBUQUE        CLOUDY    17  10  74 NW16      29.73R WCI   2
DECORAH        CLOUDY    16   9  73 NW22G28   29.76R WCI  -2
MASON CITY     CLOUDY    11   6  81 NW29G39   29.87R BLWGSNOWWCI -11
CHARLES CITY   LGT SNOW  12  10  92 NW22G31   29.83R VSB 3/4 WCI  -7
OELWEIN        LGT SNOW  14  10  85 NW24      29.80R WCI  -5
$$

...ELSEWHERE IN IOWA...


CITY           SKY/WX    TMP DP  RH WIND       PRES   REMARKS
DES MOINES     LGT SNOW  18  11  74 N26G45    29.94R VSB 3/4 WCI  -1
IOWA CITY      FLURRIES  18  10  71 NW20G29   29.84R WCI   2
FORT DODGE     CLOUDY    14   7  73 N17G31    29.95R WCI  -3
MARSHALLTOWN   LGT SNOW  14   9  80 NW24      29.88R WCI  -5
CEDAR RAPIDS   FLURRIES  16  11  80 NW24G30   29.81R WCI  -2
$$

...NORTHERN ILLINOIS...


CITY           SKY/WX    TMP DP  RH WIND       PRES   REMARKS
CHICAGO-OHARE  FLURRIES  29  23  78 W12       29.64R WCI  19
CHICAGO-MIDWAY CLOUDY    31  20  63 W14       29.65R WCI  21
MOLINE         LGT SNOW  20  12  71 NW16G23   29.77S WCI   6
ROCKFORD       LGT SNOW  24  19  81 W13       29.70R WCI  12
PEORIA         CLOUDY    22  11  62 W17G26    29.77R WCI   8
$$

NOTE: "FAIR" INDICATES FEW OR NO CLOUDS BELOW 12,000 FEET WITH NO
SIGNIFICANT WEATHER AND/OR OBSTRUCTIONS TO VISIBILITY. WIND
SPEEDS ARE IN MILES-PER-HOUR.




USA.gov is the U.S. government's official web portal to all federal, state and local government web resources and services.